Regional Weather Roundup
Issued by NWS Northern Indiana

Home | Current Version | Previous Version | Graphics & Text | Print | Product List | Glossary On
Versions: 1 2 3 4 5 6 7 8 9 10 11 12 13 14 15 16 17 18 19 20 21 22 23 24 25 26 27 28 29 30 31 32 33 34 35 36 37 38 39 40 41 42 43 44 45 46 47 48 49 50
000
ASUS43 KIWX 011810
RWRIWX

KIWX WEATHER ROUNDUP
NATIONAL WEATHER SERVICE NORTHERN INDIANA
200 PM EDT SUN MAY 01 2016

NOTE: "FAIR" INDICATES FEW OR NO CLOUDS BELOW 12,000 FEET WITH NO
SIGNIFICANT WEATHER AND/OR OBSTRUCTIONS TO VISIBILITY.

* THESE STATIONS ARE NOT UNDER NWS QUALITY CONTROL. THEY ALSO MAY NOT
  REPORT WEATHER SUCH AS PRECIPITATION OR FOG.

INZ001>027-011900-
NORTHERN INDIANA

CITY           SKY/WX    TMP DP  RH WIND       PRES   REMARKS
GARY*          CLOUDY    48  48 100 N12       29.99S FOG
VALPARAISO     CLOUDY    56  49  77 NE7       29.97S
6HR MIN TEMP:  48; 6HR MAX TEMP:  57;

MICHIGAN CITY* CLOUDY    52  52 100 N7        29.97F
LAPORTE*       CLOUDY    57  54  91 NE5       29.97S
KNOX*          CLOUDY    54  48  82 E5        29.97R
SOUTH BEND     CLOUDY    54  49  83 E3        29.98S
6HR MIN TEMP:  48; 6HR MAX TEMP:  55;

ELKHART*       CLOUDY    54  54 100 MISG      29.97F
GOSHEN         CLOUDY    54  50  86 NE6       29.97R
6HR MIN TEMP:  49; 6HR MAX TEMP:  54;

MONTICELLO*    CLOUDY    57  53  85 NE3       29.95S
6HR MIN TEMP:  51; 6HR MAX TEMP:  57;

LOGANSPORT*    CLOUDY    57  55  94 N3        29.96S FOG
ROCHESTER*     CLOUDY    57  55  94 CALM      29.96S
WARSAW*        CLOUDY    54  52  94 NE5       29.96
ANGOLA*        CLOUDY    52  43  71 NE6       29.97S
FORT WAYNE     CLOUDY    59  54  83 CALM      29.96S
6HR MIN TEMP:  50; 6HR MAX TEMP:  59;

HUNTINGTON*    CLOUDY   N/A N/A N/A CALM      29.95S
PERU/GRISSOM   CLOUDY    62  62  99 N5        29.93F
6HR MIN TEMP:  52; 6HR MAX TEMP:  62;

MARION*        SUNNY     66  58  75 SW5       29.94F
6HR MIN TEMP:  -1; 6HR MAX TEMP:  82; 6HR PCP:  0.01;


$$
INZ028>050-011900-
CENTRAL INDIANA

CITY           SKY/WX    TMP DP  RH WIND       PRES   REMARKS
LAFAYETTE      CLOUDY    60  56  86 NW6       29.95S
6HR MIN TEMP:  53; 6HR MAX TEMP:  61;

KOKOMO*        CLOUDY    68  57  68 CALM      29.93S
6HR MIN TEMP:  54; 6HR MAX TEMP:  68;

MUNCIE*        SUNNY     72  54  53 SW6       29.93S
6HR MIN TEMP:  63; 6HR MAX TEMP:  73;

INDIANAPOLIS   PTSUNNY   71  55  56 W3        29.92S
6HR MIN TEMP:  61; 6HR MAX TEMP:  73;


$$
MIZ043>046-050>051-056>058-064>065-071>073-077>080-011900-
SOUTHWEST LOWER MICHIGAN

CITY           SKY/WX    TMP DP  RH WIND       PRES   REMARKS
BATTLE CREEK   CLOUDY    50  46  86 NE9       29.99S
6HR MIN TEMP:  46; 6HR MAX TEMP:  50;

BENTON HARBOR  CLOUDY    54  47  77 E7        29.98S
6HR MIN TEMP:  48; 6HR MAX TEMP:  54;

COLDWATER*     CLOUDY    53  50  92 N7        29.97S
6HR MIN TEMP:  48; 6HR MAX TEMP:  53;

HILLSDALE*     CLOUDY    51  51  99 NE5       29.97R
6HR MIN TEMP:  47; 6HR MAX TEMP:  51;

HOLLAND        CLOUDY    51  46  83 E9        30.01R
6HR MIN TEMP:  46; 6HR MAX TEMP:  52; 6HR PCP:  0.01;

GRAND RAPIDS   CLOUDY    51  46  83 NE17      29.99F
6HR MIN TEMP:  47; 6HR MAX TEMP:  51; 6HR PCP:  0.02;

KALAMAZOO      CLOUDY    51  46  83 NE6       30.00R
6HR MIN TEMP:  47; 6HR MAX TEMP:  51;

STURGIS*       CLOUDY    52  49  90 E6        29.97R
6HR MIN TEMP:  47; 6HR MAX TEMP:  52;

THREE RIVERS*  CLOUDY    51  49  93 NE3       29.98S
6HR MIN TEMP:  47; 6HR MAX TEMP:  52;


$$
OHZ001>008-015>018-024>025-011900-
NORTHWEST OHIO

CITY           SKY/WX    TMP DP  RH WIND       PRES   REMARKS
WAUSEON*         N/A     54 N/A N/A N9        29.96F FOG
DEFIANCE       CLOUDY    58  51  78 N7        29.96F
6HR MIN TEMP:  51; 6HR MAX TEMP:  57;

FINDLAY        CLOUDY    64  55  72 CALM      29.93F
6HR MIN TEMP:  52; 6HR MAX TEMP:  64;

TOLEDO EXPRESS CLOUDY    53  51  93 NE6       29.96F
6HR MIN TEMP:  49; 6HR MAX TEMP:  54;

TOLEDO METCALF CLOUDY    54  49  83 NE8       29.97F
6HR MIN TEMP:  50; 6HR MAX TEMP:  55;

LIMA           MOSUNNY   68  61  78 NW9       29.93S
6HR MIN TEMP:  55; 6HR MAX TEMP:  69;


$$
AND FOR LAKE MICHIGAN COASTAL AND OPEN LAKE BUOY OBSERVATIONS

STATION/POSITION TEMP    WIND        PRES    VSBY  WAVE
                 AIR SEA DIR/SP/G                  HT/PER
                 (F)     (DEG/KT/KT) (MB)    (MI)  (FT/S)
CALUMET HARBOR    44      10/ 12/ 16 1015.2F
MICHIGAN CITY     44     350/ 14/ 15   N/A
BURNS HARBOR      45      20/ 13/ 14 1015.9F
SAINT JOSEPH      49     350/  7/  9 1015.9R
SOUTH LAKE BUOY   42 40   30/ 10/ 10 1016.2F         2/ 5
4 MI NW BRIDGMAN  47 48                N/A           2/ 4

$$
&&



USA.gov is the U.S. government's official web portal to all federal, state and local government web resources and services.